Weather History for Key West NAF, FL

Change the Weather History Date:

Monday, July 7, 2014

  Actual Average Record
Temperature  
Mean Temperature 86 °F -  
Max Temperature 91 °F 89 °F 93 °F (2010)
Min Temperature 82 °F 79 °F 71 °F (1950)
Cooling Degree Days 20    
Growing Degree Days 36 (Base 50)    
Moisture  
Dew Point 74 °F    
Average Humidity 68    
Maximum Humidity 77    
Minimum Humidity 55    
Precipitation  
Precipitation 0.00 in - - ()
Sea Level Pressure  
Sea Level Pressure 30.06 in    
Wind  
Wind Speed 11 mph (ESE)    
Max Wind Speed 16 mph    
Max Gust Speed 24 mph    
Visibility 10 miles    
Events Thunderstorm    
Averages and records for this station are not official NWS values.
T = Trace of Precipitation, MM = Missing Value Source: NWS Daily Summary

Daily Weather History Graph

Daily Weather History Graph

Search for Another Location

Airport:

Trip Planner

Search our weather history database for the weather conditions in past years. The results will help you decide how hot, cold, wet, or windy it might be!

Date:

Astronomy

Jul. 07, 2014 Rise Set
Actual Time 6:43 AM EDT 8:19 PM EDT
Civil Twilight 6:18 AM EDT 8:44 PM EDT
Nautical Twilight 5:47 AM EDT 9:15 PM EDT
Astronomical Twilight 5:15 AM EDT 9:47 PM EDT
Moon 3:36 PM EDT (7/7) 2:17 AM EDT (7/7)
Length of Visible Light 14h 26m
Length of Day
13h 35m
Waxing Gibbous, 72% of the Moon is Illuminated
Jul 7
Waxing Gibbous
Jul 12
Full
Jul 18
Last Quarter
Jul 26
New
Aug 3
First Quarter

Hourly Weather History & Observations

Time (EDT) Temp. Heat Index Dew Point Humidity Pressure Visibility Wind Dir Wind Speed Gust Speed Precip Events Conditions
12:53 AM 82.9 °F 90.2 °F 75.0 °F 77% 30.05 in 10.0 mi ESE 11.5 mph - N/A   Partly Cloudy
1:53 AM 84.0 °F 91.2 °F 73.9 °F 72% 30.04 in 10.0 mi ESE 10.4 mph - N/A   Scattered Clouds
2:53 AM 84.0 °F 91.2 °F 73.9 °F 72% 30.02 in 10.0 mi SE 10.4 mph - N/A   Partly Cloudy
3:53 AM 84.0 °F 91.9 °F 75.0 °F 74% 30.01 in 10.0 mi SE 13.8 mph - N/A   Partly Cloudy
4:53 AM 84.0 °F 91.2 °F 73.9 °F 72% 30.01 in 10.0 mi SE 11.5 mph - N/A   Partly Cloudy
5:53 AM 84.0 °F 91.9 °F 75.0 °F 74% 30.02 in 10.0 mi SE 11.5 mph - N/A   Scattered Clouds
5:57 AM 84.0 °F 91.9 °F 75.0 °F 74% 30.02 in 10.0 mi SE 11.5 mph - N/A   Scattered Clouds
6:53 AM 84.0 °F 91.2 °F 73.9 °F 72% 30.04 in 10.0 mi SE 12.7 mph - N/A   Scattered Clouds
7:53 AM 84.9 °F 92.1 °F 73.9 °F 69% 30.05 in 10.0 mi SSE 10.4 mph - N/A   Scattered Clouds
8:53 AM 87.1 °F 96.3 °F 75.0 °F 67% 30.06 in 10.0 mi SSE 12.7 mph - N/A   Scattered Clouds
9:53 AM 88.0 °F 97.5 °F 75.0 °F 65% 30.08 in 10.0 mi SSE 12.7 mph - N/A   Scattered Clouds
10:53 AM 88.0 °F 98.5 °F 75.9 °F 67% 30.09 in 10.0 mi South 9.2 mph - N/A   Scattered Clouds
11:53 AM 89.1 °F 99.1 °F 75.0 °F 63% 30.09 in 10.0 mi Variable 5.8 mph - 0.00 in   Scattered Clouds
12:53 PM 89.1 °F 99.1 °F 75.0 °F 63% 30.09 in 10.0 mi Variable 3.5 mph - 0.00 in   Scattered Clouds
1:53 PM 89.1 °F 98.0 °F 73.9 °F 61% 30.08 in 10.0 mi Variable 3.5 mph - N/A   Mostly Cloudy
2:53 PM 89.1 °F 99.1 °F 75.0 °F 63% 30.07 in 10.0 mi SE 13.8 mph - N/A   Mostly Cloudy
3:25 PM 88.0 °F 96.5 °F 73.9 °F 63% 30.07 in 10.0 mi ESE 5.8 mph - N/A Thunderstorm Thunderstorm
3:53 PM 86.0 °F 95.1 °F 75.0 °F 70% 30.07 in 10.0 mi NNE 16.1 mph 24.2 mph N/A Thunderstorm Thunderstorm
4:07 PM 84.0 °F 89.6 °F 72.0 °F 67% 30.07 in 10.0 mi North 13.8 mph - N/A Thunderstorm Thunderstorm
4:25 PM 87.1 °F 92.8 °F 71.1 °F 59% 30.07 in 10.0 mi North 12.7 mph - N/A   Scattered Clouds
4:53 PM 89.1 °F 95.0 °F 71.1 °F 55% 30.06 in 10.0 mi NNE 10.4 mph - N/A   Scattered Clouds
5:53 PM 89.1 °F 95.0 °F 71.1 °F 55% 30.06 in 10.0 mi ENE 9.2 mph - N/A   Mostly Cloudy
6:53 PM 87.1 °F 95.4 °F 73.9 °F 65% 30.06 in 10.0 mi NE 9.2 mph - N/A   Scattered Clouds
7:53 PM 86.0 °F 95.1 °F 75.0 °F 70% 30.06 in 10.0 mi ENE 6.9 mph - N/A   Scattered Clouds
8:53 PM 84.0 °F 90.2 °F 73.0 °F 69% 30.07 in 10.0 mi East 12.7 mph - N/A   Scattered Clouds
9:53 PM 84.0 °F 90.2 °F 73.0 °F 69% 30.08 in 10.0 mi ESE 10.4 mph - N/A   Partly Cloudy
10:53 PM 84.0 °F 91.2 °F 73.9 °F 72% 30.10 in 10.0 mi East 13.8 mph - N/A   Clear
11:53 PM 84.0 °F 92.6 °F 75.9 °F 76% 30.09 in 10.0 mi ESE 9.2 mph - N/A   Partly Cloudy